2023/02/01 00:00:00,150.4,-3.8
2023/02/01 00:10:00,150.4,-4.0
2023/02/01 00:20:00,150.4,-3.9
2023/02/01 00:30:00,150.2,-3.6
2023/02/01 00:40:00,150.1,-3.3
2023/02/01 00:50:00,149.9,-3.7
2023/02/01 01:00:00,149.8,-3.8
2023/02/01 01:10:00,149.9,-3.5
2023/02/01 01:20:00,149.8,-4.0
2023/02/01 01:30:00,149.6,-4.1
2023/02/01 01:40:00,149.5,-3.9
2023/02/01 01:50:00,149.4,-4.1
2023/02/01 02:00:00,149.3,-4.2
2023/02/01 02:10:00,149.2,-3.8
2023/02/01 02:20:00,149.1,-4.5
2023/02/01 02:30:00,149.0,-4.2
2023/02/01 02:40:00,148.9,-4.1
2023/02/01 02:50:00,148.8,-4.4
2023/02/01 03:00:00,148.7,-4.6
2023/02/01 03:10:00,148.6,-4.4
2023/02/01 03:20:00,148.5,-4.7
2023/02/01 03:30:00,148.5,-4.3
2023/02/01 03:40:00,148.4,-4.5
2023/02/01 03:50:00,148.3,-4.3
2023/02/01 04:00:00,148.2,-4.2
2023/02/01 04:10:00,148.2,-4.4
2023/02/01 04:20:00,148.1,-4.2
2023/02/01 04:30:00,148.0,-4.4
2023/02/01 04:40:00,147.9,-4.2
2023/02/01 04:50:00,147.8,-3.9
2023/02/01 05:00:00,147.8,-3.9
2023/02/01 05:10:00,147.7,-3.9
2023/02/01 05:20:00,147.6,-4.0
2023/02/01 05:30:00,147.5,-4.1
2023/02/01 05:40:00,147.5,-3.8
2023/02/01 05:50:00,147.4,-3.7
2023/02/01 06:00:00,147.4,-3.5
2023/02/01 06:10:00,147.4,-3.7
2023/02/01 06:20:00,147.4,-3.8
2023/02/01 06:30:00,147.3,-3.8
2023/02/01 06:40:00,147.2,-3.0
2023/02/01 06:50:00,147.1,-2.5
2023/02/01 07:00:00,146.9,-1.7
2023/02/01 07:10:00,146.8,-1.6
2023/02/01 07:20:00,146.8,-1.2
2023/02/01 07:30:00,146.8,-1.1
2023/02/01 07:40:00,146.8,-0.7
2023/02/01 07:50:00,146.7,-0.5
2023/02/01 08:00:00,146.7,-0.3
2023/02/01 08:10:00,146.7, 0.3
2023/02/01 08:20:00,146.7, 0.2
2023/02/01 08:30:00,146.6, 0.6
2023/02/01 08:40:00,146.6, 0.7
2023/02/01 08:50:00,146.5, 0.9
2023/02/01 09:00:00,146.5, 1.4
2023/02/01 09:10:00,146.5, 1.7
2023/02/01 09:20:00,146.5, 2.4
2023/02/01 09:30:00,146.4, 2.8
2023/02/01 09:40:00,146.3, 3.2
2023/02/01 09:50:00,146.3, 3.5
2023/02/01 10:00:00,146.4, 3.7
2023/02/01 10:10:00,146.4, 3.9
2023/02/01 10:20:00,146.5, 3.8
2023/02/01 10:30:00,146.5, 4.2
2023/02/01 10:40:00,146.5, 4.7
2023/02/01 10:50:00,146.5, 4.5
2023/02/01 11:00:00,146.4, 3.7
2023/02/01 11:10:00,146.3, 3.1
2023/02/01 11:20:00,146.2, 2.8
2023/02/01 11:30:00,146.1, 2.8
2023/02/01 11:40:00,146.0, 3.3
2023/02/01 11:50:00,146.0, 3.4
2023/02/01 12:00:00,145.9, 3.6
2023/02/01 12:10:00,145.9, 3.4
2023/02/01 12:20:00,145.8, 3.2
2023/02/01 12:30:00,145.8, 2.8
2023/02/01 12:40:00,145.8, 2.6
2023/02/01 12:50:00,145.7, 2.5
2023/02/01 13:00:00,145.6, 3.0
2023/02/01 13:10:00,145.5, 2.9
2023/02/01 13:20:00,145.4, 3.2
2023/02/01 13:30:00,145.2, 3.8
2023/02/01 13:40:00,145.2, 4.7
2023/02/01 13:50:00,145.1, 5.0
2023/02/01 14:00:00,144.9, 5.2
2023/02/01 14:10:00,144.9, 4.7
2023/02/01 14:20:00,144.8, 4.2
2023/02/01 14:30:00,144.8, 3.8
2023/02/01 14:40:00,144.7, 3.8
2023/02/01 14:50:00,144.6, 3.6
2023/02/01 15:00:00,144.5, 3.4
2023/02/01 15:10:00,144.4, 3.3
2023/02/01 15:20:00,144.4, 3.4
2023/02/01 15:30:00,144.3, 2.9
2023/02/01 15:40:00,144.3, 3.0
2023/02/01 15:50:00,144.3, 2.7
2023/02/01 16:00:00,144.3, 2.4
2023/02/01 16:10:00,144.1, 2.1
2023/02/01 16:20:00,144.1, 2.4
2023/02/01 16:30:00,144.1, 2.1
2023/02/01 16:40:00,144.0, 1.7
2023/02/01 16:50:00,144.0, 1.8
2023/02/01 17:00:00,143.9, 2.0
2023/02/01 17:10:00,143.8, 1.9
2023/02/01 17:20:00,143.7, 1.7
2023/02/01 17:30:00,143.6, 1.7
2023/02/01 17:40:00,143.6, 1.6
2023/02/01 17:50:00,143.6, 1.7
2023/02/01 18:00:00,143.5, 1.7
2023/02/01 18:10:00,143.3, 1.7
2023/02/01 18:20:00,143.2, 1.6
2023/02/01 18:30:00,143.1, 1.7
2023/02/01 18:40:00,143.1, 1.9
2023/02/01 18:50:00,143.0, 1.9
2023/02/01 19:00:00,143.0, 2.1
2023/02/01 19:10:00,142.9, 2.1
2023/02/01 19:20:00,142.8, 2.0
2023/02/01 19:30:00,142.7, 1.9
2023/02/01 19:40:00,142.5, 1.9
2023/02/01 19:50:00,142.4, 2.3
2023/02/01 20:00:00,142.2, 2.4
2023/02/01 20:10:00,142.2, 1.8
2023/02/01 20:20:00,142.2, 2.1
2023/02/01 20:30:00,142.0, 2.4
2023/02/01 20:40:00,141.8, 1.7
2023/02/01 20:50:00,141.5, 1.7
2023/02/01 21:00:00,141.3, 1.9
2023/02/01 21:10:00,141.3, 2.0
2023/02/01 21:20:00,141.2, 2.0
2023/02/01 21:30:00,140.9, 1.9
2023/02/01 21:40:00,140.6, 1.8
2023/02/01 21:50:00,140.7, 1.6
2023/02/01 22:00:00,140.4, 1.6
2023/02/01 22:10:00,140.0, 1.6
2023/02/01 22:20:00,140.0, 1.5
2023/02/01 22:30:00,139.8, 1.4
2023/02/01 22:40:00,139.6, 1.4
2023/02/01 22:50:00,139.6, 1.1
2023/02/01 23:00:00,139.4, 1.1
2023/02/01 23:10:00,139.3, 1.2
2023/02/01 23:20:00,139.1, 0.9
2023/02/01 23:30:00,138.9, 0.9
2023/02/01 23:40:00,138.8, 1.1
2023/02/01 23:50:00,138.7, 0.8
